LSMELSZL

Guest
Details From LSME - Emmen
To LSZL - Locarno
Flight Number -
Tags decoded
Created
Modified
Stats Distance 100 nm / 185 km
Max Altitude 0 ft / 0 m
Waypoints 9
Social Downloads 5
Likes 0
Share VATSIM

Download

Looking for another format? Having issues loading an existing format? Contact us
Advertisement - Login to hide

Notes

Requested: LSME WIL RONIX ZC101 GERSA N850 ODINA LSZA CALDO LSZL Unmatched points: ZC101

Route

LSME RONIX GERSA N850 ODINA LSZA LSZL

ID Type Via Altitude (ft/m) Position (lat/lon) Dist (leg/tot) Name
O LSME APT - 0 / 0 47.09237 / 8.30512 - / 0 nm Emmen
RONIX FIX - 0 / 0 47.22833 / 8.45833 10 / 10 nm
GERSA FIX - 0 / 0 47.03944 / 8.53222 11 / 22 nm
MALUS FIX N850 (AWY-LO) 0 / 0 46.82833 / 8.56250 12 / 34 nm
SOSON FIX N850 (AWY-LO) 0 / 0 46.60667 / 8.59417 13 / 48 nm
DEGAD FIX N850 (AWY-LO) 0 / 0 46.43611 / 8.61833 10 / 58 nm
ODINA FIX N850 (AWY-LO) 0 / 0 46.10444 / 8.66500 20 / 78 nm
LSZA APT - 0 / 0 46.00428 / 8.91058 11 / 90 nm Lugano
O LSZL APT - 0 / 0 46.16262 / 8.87987 9 / 99 nm Locarno

Altitude Profile

Advertisement - Login to hide

LSME

Details ICAO LSME (EML)
Name Emmen
Region Switzerland
Timezone Europe/Zurich (UTC+1.0)
Stats Elevation 1,400 ft / 427 m (AMSL)
Location 47.092400° 8.305120°
Runways 1
Magnetic Variation 2.527° E

METAR

LSME 142020Z AUTO 16004KT 9999NDV FEW073 OVC160 06/04 Q1009 RMK

Decode

TAF

TAF LSME 141625Z 1417/1523 25005KT 9999 FEW080 PROB30 TEMPO 1418/1422 RA

Decode

Departure Runways

ID Width Length Bearing (true/mag) Surface Threshold Overrun Markings Lighting
04 130 ft / 40 m 8,202 ft / 2,500 m 37.49° / 34.96° ASPHALT 363 ft / 111 m 810 ft / 247 m PREC-APP CENTERLINE EDGE THRESHOLD REIL-OMNI
22 130 ft / 40 m 8,202 ft / 2,500 m 217.51° / 214.98° ASPHALT 596 ft / 182 m 747 ft / 228 m PREC-APP CENTERLINE EDGE THRESHOLD REIL-OMNI

LSZL

Details ICAO LSZL (ZJI)
Name Locarno
Region Switzerland
Timezone Europe/Zurich (UTC+1.0)
Stats Elevation 649 ft / 198 m (AMSL)
Location 46.161700° 8.878540°
Runways 3
Magnetic Variation 2.654° E

METAR

LSZL 142020Z AUTO VRB02KT 9999NDV NCD 02/01 Q1009 RMK

Decode

TAF

Not found

Destination Runways

ID Width Length Bearing (true/mag) Surface Threshold Overrun Markings Lighting
08C 98 ft / 30 m 2,284 ft / 696 m 79.42° / 76.76° GRASS 0 ft / 0 m 52 ft / 16 m NONE
08L 75 ft / 23 m 2,622 ft / 799 m 79.08° / 76.42° ASPHALT 417 ft / 127 m 0 ft / 0 m APP EDGE THRESHOLD
08R 98 ft / 30 m 1,997 ft / 609 m 79.64° / 76.98° GRASS 0 ft / 0 m 0 ft / 0 m NONE
26C 98 ft / 30 m 2,284 ft / 696 m 259.43° / 256.77° GRASS 0 ft / 0 m 0 ft / 0 m NONE
26L 98 ft / 30 m 1,997 ft / 609 m 259.64° / 256.99° GRASS 0 ft / 0 m 295 ft / 90 m NONE
26R 75 ft / 23 m 2,622 ft / 799 m 259.08° / 256.43° ASPHALT 164 ft / 50 m 0 ft / 0 m APP EDGE THRESHOLD